TimeEST,TemperatureF,Dew PointF,Humidity,Sea Level PressureIn,VisibilityMPH,Wind Direction,Wind SpeedMPH,Gust SpeedMPH,PrecipitationIn,Events,Conditions,WindDirDegrees,DateUTC
12:44 AM,51.8,50.0,94,30.42,1.8,Calm,Calm,-,N/A,,Clear,0,2013-01-10 05:44:00
12:51 AM,51.8,51.8,100,30.42,0.5,Calm,Calm,-,N/A,Fog,Fog,0,2013-01-10 05:51:00
12:54 AM,53.1,51.1,93,30.42,0.5,Calm,Calm,-,N/A,Fog,Fog,0,2013-01-10 05:54:00
12:58 AM,53.6,51.8,94,30.42,1.0,Calm,Calm,-,N/A,,Clear,0,2013-01-10 05:58:00
1:04 AM,53.6,51.8,94,30.42,3.0,Calm,Calm,-,N/A,,Clear,0,2013-01-10 06:04:00
1:41 AM,51.8,51.8,100,30.43,1.8,Calm,Calm,-,N/A,,Clear,0,2013-01-10 06:41:00
1:49 AM,51.8,50.0,94,30.43,0.5,Calm,Calm,-,N/A,Fog,Fog,0,2013-01-10 06:49:00
1:50 AM,51.8,50.0,94,30.43,0.5,Calm,Calm,-,N/A,Fog,Fog,0,2013-01-10 06:50:00
1:54 AM,51.1,50.0,96,30.43,0.8,Calm,Calm,-,N/A,,Mist,0,2013-01-10 06:54:00
2:09 AM,50.0,48.2,94,30.44,0.5,Calm,Calm,-,N/A,Fog,Fog,0,2013-01-10 07:09:00
2:54 AM,51.1,48.9,92,30.43,0.5,Calm,Calm,-,N/A,Fog,Fog,0,2013-01-10 07:54:00
3:24 AM,48.2,46.4,93,30.43,1.0,Calm,Calm,-,N/A,,Mist,0,2013-01-10 08:24:00
3:27 AM,48.2,46.4,93,30.43,2.5,Calm,Calm,-,N/A,,Partly Cloudy,0,2013-01-10 08:27:00
3:39 AM,48.2,48.2,100,30.43,0.8,Calm,Calm,-,N/A,,Clear,0,2013-01-10 08:39:00
3:54 AM,48.9,46.9,93,30.43,0.8,Calm,Calm,-,N/A,,Mist,0,2013-01-10 08:54:00
3:58 AM,50.0,48.2,94,30.42,1.5,Calm,Calm,-,N/A,,Partly Cloudy,0,2013-01-10 08:58:00
4:00 AM,50.0,48.2,94,30.42,3.0,Calm,Calm,-,N/A,,Partly Cloudy,0,2013-01-10 09:00:00
4:30 AM,48.2,46.4,93,30.42,1.8,North,4.6,-,N/A,,Clear,350,2013-01-10 09:30:00
4:39 AM,48.2,46.4,93,30.42,0.8,Calm,Calm,-,N/A,,Mist,0,2013-01-10 09:39:00
4:47 AM,50.0,48.2,94,30.42,0.2,Calm,Calm,-,N/A,Fog,Fog,0,2013-01-10 09:47:00
4:54 AM,50.0,48.0,93,30.42,0.5,Calm,Calm,-,N/A,Fog,Fog,0,2013-01-10 09:54:00
4:58 AM,50.0,48.2,94,30.42,1.0,Calm,Calm,-,N/A,,Clear,0,2013-01-10 09:58:00
5:04 AM,50.0,48.2,94,30.43,0.5,Calm,Calm,-,N/A,Fog,Fog,0,2013-01-10 10:04:00
5:41 AM,50.0,48.2,94,30.44,1.0,SSW,3.5,-,N/A,,Clear,200,2013-01-10 10:41:00
5:54 AM,50.0,48.0,93,30.45,5.0,Calm,Calm,-,N/A,,Clear,0,2013-01-10 10:54:00
7:54 AM,48.0,46.9,96,30.51,5.0,Calm,Calm,-,N/A,Fog,Shallow Fog,0,2013-01-10 12:54:00
8:54 AM,54.0,52.0,93,30.54,10.0,NNE,6.9,-,N/A,Fog,Shallow Fog,30,2013-01-10 13:54:00
9:54 AM,57.9,46.9,67,30.53,10.0,East,8.1,-,N/A,,Clear,90,2013-01-10 14:54:00
10:54 AM,63.0,42.1,46,30.52,10.0,East,10.4,-,N/A,,Clear,80,2013-01-10 15:54:00
11:54 AM,64.0,42.1,45,30.49,10.0,ENE,8.1,-,N/A,,Clear,60,2013-01-10 16:54:00
12:54 PM,64.0,39.0,40,30.47,10.0,NNE,11.5,-,N/A,,Clear,30,2013-01-10 17:54:00
1:54 PM,64.9,35.1,33,30.47,10.0,East,8.1,-,N/A,,Clear,90,2013-01-10 18:54:00
2:54 PM,63.0,36.0,37,30.48,10.0,East,8.1,-,N/A,,Clear,100,2013-01-10 19:54:00
3:54 PM,59.0,41.0,51,30.49,10.0,ESE,3.5,-,N/A,,Clear,120,2013-01-10 20:54:00
4:54 PM,57.0,37.0,47,30.49,10.0,East,5.8,-,N/A,,Clear,90,2013-01-10 21:54:00
5:54 PM,53.1,37.9,57,30.50,10.0,East,4.6,-,N/A,,Clear,90,2013-01-10 22:54:00
6:54 PM,51.1,37.9,61,30.50,10.0,ENE,3.5,-,N/A,,Clear,70,2013-01-10 23:54:00
7:54 PM,48.9,37.0,64,30.50,10.0,ENE,5.8,-,N/A,,Clear,60,2013-01-11 00:54:00
8:54 PM,48.0,36.0,63,30.50,10.0,ENE,5.8,-,N/A,,Clear,70,2013-01-11 01:54:00
9:54 PM,46.9,36.0,66,30.49,10.0,ENE,6.9,-,N/A,,Clear,70,2013-01-11 02:54:00
10:54 PM,46.0,36.0,68,30.48,10.0,ENE,5.8,-,N/A,,Clear,60,2013-01-11 03:54:00
11:54 PM,45.0,36.0,71,30.47,10.0,ENE,4.6,-,N/A,,Clear,60,2013-01-11 04:54:00